Date,TemperatureHighF,TemperatureAvgF,TemperatureLowF,DewpointHighF,DewpointAvgF,DewpointLowF,HumidityHigh,HumidityAvg,HumidityLow,PressureMaxIn,PressureMinIn,WindSpeedMaxMPH,WindSpeedAvgMPH,GustSpeedMaxMPH,PrecipitationSumIn
2013-6-1,73,54,35,47,36,30,82,55,21,31.16,30.75,7,1,7,0.00
2013-6-2,60,51,45,48,43,36,91,75,55,30.77,30.62,19,1,19,0.25
2013-6-3,67,54,45,49,44,41,92,73,41,30.88,30.72,17,2,20,0.01
2013-6-4,69,56,44,48,44,40,92,68,39,31.03,30.86,12,1,12,0.00
2013-6-5,82,61,40,57,44,36,90,58,25,30.96,30.65,10,1,10,0.00
2013-6-6,85,67,50,56,46,39,78,50,27,30.81,30.58,9,0,9,0.00
2013-6-7,82,67,53,57,48,42,78,53,31,30.69,30.49,18,2,18,0.00
2013-6-8,82,69,51,47,40,34,69,37,20,30.75,30.53,25,2,25,0.00
2013-6-9,85,67,47,52,41,28,77,43,13,30.67,30.43,24,2,25,0.00
2013-6-10,80,63,43,48,41,35,78,47,24,30.64,30.36,18,3,19,0.00
2013-6-11,81,64,49,55,44,39,79,51,27,30.67,30.41,19,2,19,0.00
2013-6-12,72,60,48,51,46,42,83,61,41,30.72,30.60,23,6,23,0.00
2013-6-13,61,52,45,50,46,40,93,81,56,30.91,30.64,17,1,17,0.50
2013-6-14,64,52,45,46,42,37,92,70,40,30.97,30.84,22,2,22,0.03
2013-6-15,80,59,39,48,40,32,88,56,19,30.97,30.64,11,0,11,0.00
2013-6-16,81,63,43,55,44,37,85,54,29,30.84,30.65,16,2,16,0.00
2013-6-17,88,68,46,54,47,39,86,51,18,30.79,30.47,10,1,10,0.00
2013-6-18,82,65,50,59,50,43,81,60,34,30.53,30.32,17,2,17,0.00
2013-6-19,62,55,50,53,49,43,92,78,63,30.63,30.28,14,1,14,0.40
2013-6-20,63,53,45,46,42,38,85,66,46,30.89,30.63,23,6,23,0.00
2013-6-21,70,55,41,47,42,36,93,66,34,30.96,30.76,14,1,14,0.00
2013-6-22,70,56,43,49,43,40,92,65,36,30.89,30.72,13,0,13,0.00
2013-6-23,79,60,40,55,45,36,89,61,28,30.77,30.38,9,0,9,0.00
2013-6-24,73,61,55,59,53,47,94,75,50,30.45,30.29,17,1,17,0.22
2013-6-25,75,62,53,57,52,45,94,74,37,30.63,30.42,16,1,16,0.01
2013-6-26,72,61,54,59,54,51,94,78,49,30.89,30.60,17,2,17,0.07
2013-6-27,89,68,51,63,55,48,94,66,29,30.99,30.78,11,0,11,0.01
2013-6-28,90,72,55,66,56,48,84,60,35,31.00,30.70,10,1,11,0.00
2013-6-29,89,71,57,65,58,52,89,66,39,30.85,30.57,15,1,15,0.00
2013-6-30,94,75,59,66,60,55,93,64,33,30.77,30.61,11,1,11,0.00